Weather in Baygul

Russia / Zabaykalsky Krai     52°14′52″N   116°44′44″E
В апреле 2022 года жителям России запретили посещать сайт meteo.paraplan.net по решению Генеральной прокуратуры. Аудитория сайта уменьшилась в 10 раз. Владельцы сайта не видят смысла в поддержке погодного сервера в таких условиях. Сайт будет закрыт в октябре.
temp.,
°C
wind,
m/s
gust,
m/s
humid.,
%
clouds,
%
prec.,
mm/h
press.,
hPa
HPBL,
m
29 september, thu
thu2900:00+7e61042100 0.0 1006251
03:00+6ene2348100 0.1 100587
06:00+4e2275100 0.3 100485
09:00+4nnw2377100 0.3 1005234
12:00+5nw786889 0.0 1007993
15:00+10nnw584585 0.0 10071766
18:00+8n5752100 0.0 1009469
21:00+3ne2272100 0.0 101214
30 september, fri
fri3000:00+2e117680 0.0 101310
03:00+1ne1180100 0.0 101310
06:000ne2379100 0.0 101353
09:00+2ne2466100 0.0 1013185
12:00+5e3352100 0.0 1013602
15:00+8ene334426 0.0 1012832
18:00+7ese22514 0.0 101332
21:00+3ese226387 0.0 101513
1 october, sat
sat100:00+2ese1270100 0.0 101610
03:00+1ese2271100 0.0 101710
06:00+1e2274100 0.0 101629
09:00+3e3567100 0.0 1014187
12:00+4se5887100 3.8 1014543
15:00+7ssw2676100 3.8 1011387
18:00+6wsw5983100 0.0 1011436
21:00+3wsw489212 0.0 1013139
2 october, sun
sun200:00+2wsw7138279 0.0 1015448
03:00−1wsw61278100 0.0 1017397
06:00−1w6127637 0.0 1017458
09:000w7126887 0.0 1020635
12:00+3wnw8948100 0.0 10201244
15:00+4wnw8104097 0.0 10201894
18:00+3wnw584867 0.0 1020968
21:00−2wnw49701 0.0 1023182
3 october, mon
mon300:00−3wnw510710 0.0 1024223
03:00−4wnw410717 0.0 1025277
06:00−4wnw5116453 0.0 1026480
09:00−2nw6105979 0.0 1027823
12:00+3nw79320 0.0 10281847
15:00+4nw7927100 0.0 10272622
18:00+2nnw35395 0.0 1027108
21:00−1wnw11505 0.0 102910